DELTON-WX Weather Reports


time (UTC)temp
C
wind
direction
speed
KPH
gust
KPH
rain 1hr
cm
rain 24hr
cm
rain mn
cm
humidity
%
barometer
mb
20260906123054 13 45 9.7 0.0 0.00 0.00 0.00 91 985.1
20260906121544 12 44 9.7 0.0 0.00 0.00 0.00 91 985.1
20260906120042 12 42 9.7 0.0 0.00 0.00 0.00 91 985.1
20260906114546 12 42 8.0 0.0 0.00 0.00 0.00 91 983.5
20260906113045 11 35 8.0 0.0 0.00 0.00 0.00 88 984.8
20260906111545 12 49 6.4 0.0 0.00 0.00 0.00 88 984.8
20260906110047 12 53 6.4 0.0 0.00 0.00 0.00 88 984.8
20260906104545 12 49 8.0 0.0 0.00 0.00 0.00 86 983.9
20260906103048 12 47 8.0 0.0 0.00 0.00 0.00 87 984.8
20260906101541 12 43 8.0 0.0 0.00 0.00 0.00 87 984.8
20260906100051 12 45 8.0 0.0 0.00 0.00 0.00 87 984.8
20260906094547 12 41 8.0 0.0 0.00 0.00 0.00 86 984.0
20260906093048 12 29 6.4 0.0 0.00 0.00 0.00 88 984.8
20260906091545 13 43 6.4 0.0 0.00 0.00 0.00 88 984.8
20260906090051 13 51 6.4 0.0 0.00 0.00 0.00 88 984.8
20260906084548 13 47 6.4 0.0 0.00 0.00 0.00 90 983.6
20260906083045 13 47 6.4 0.0 0.00 0.00 0.00 85 984.2
20260906081543 13 52 8.0 0.0 0.00 0.00 0.00 84 984.0
20260906080105 14 54 8.0 0.0 0.00 0.00 0.00 84 984.0
20260906074545 14 53 8.0 0.0 0.00 0.00 0.00 84 983.0
20260906073045 14 52 8.0 0.0 0.00 0.00 0.00 84 983.0
20260906071547 15 60 6.4 0.0 0.00 0.00 0.00 84 983.0
20260906070048 15 66 6.4 0.0 0.00 0.00 0.00 84 983.0
20260906064558 15 69 6.4 0.0 0.00 0.00 0.00 81 982.7
20260906063052 15 65 6.4 0.0 0.00 0.00 0.00 76 983.1
20260906061545 15 62 8.0 0.0 0.00 0.00 0.00 76 983.1
20260906060050 15 60 8.0 0.0 0.00 0.00 0.00 76 983.1
20260906054546 16 61 8.0 0.0 0.00 0.00 0.00 74 983.2
20260906053043 16 50 8.0 0.0 0.00 0.00 0.00 79 982.9
20260906051546 16 50 8.0 0.0 0.00 0.00 0.00 79 982.9
20260906050049 16 57 8.0 0.0 0.00 0.00 0.00 79 982.9
20260906044546 16 64 8.0 0.0 0.00 0.00 0.00 81 982.8
20260906043051 17 59 8.0 0.0 0.00 0.00 0.00 73 982.8
20260906041545 17 56 8.0 0.0 0.00 0.00 0.00 73 982.8
20260906040042 17 53 8.0 0.0 0.00 0.00 0.00 73 982.8
20260906034541 17 54 9.7 0.0 0.00 0.00 0.00 77 982.6
20260906033047 17 48 8.0 0.0 0.00 0.00 0.00 77 983.1
20260906031545 18 52 9.7 0.0 0.00 0.00 0.00 77 983.2
20260906030047 18 52 11.3 0.0 0.00 0.00 0.00 77 983.2
20260906024544 18 46 9.7 0.0 0.00 0.00 0.00 78 981.8
20260906023042 18 46 11.3 0.0 0.00 0.00 0.00 77 982.3
20260906021541 19 45 11.3 0.0 0.00 0.00 0.00 77 982.3
20260906020041 19 44 11.3 0.0 0.00 0.00 0.00 77 982.3
20260906015053 20 39 9.7 0.0 0.00 0.00 0.00 81 981.5
20260906013044 20 31 9.7 0.0 0.00 0.00 0.00 81 981.5
20260906011544 20 44 9.7 0.0 0.00 0.00 0.00 81 981.5
20260906010055 20 38 9.7 0.0 0.00 0.00 0.00 81 981.5
20260906004543 20 25 8.0 0.0 0.00 0.00 0.00 80 981.7
20260906003051 20 360 6.4 0.0 0.00 0.00 0.00 81 981.7
20260906001543 20 23 6.4 0.0 0.00 0.00 0.00 81 981.7
20260906000052 21 30 6.4 0.0 0.00 0.00 0.00 81 981.7
20260905234548 21 28 4.8 0.0 0.00 0.00 0.00 76 981.6
20260905233045 22 47 6.4 0.0 0.00 0.00 0.00 76 981.6
20260905231548 22 53 8.0 0.0 0.00 0.00 0.00 76 981.6
20260905230048 23 54 9.7 0.0 0.00 0.00 0.00 76 981.6
20260905224548 23 53 8.0 0.0 0.00 0.00 0.00 84 981.4
20260905223043 23 46 11.3 0.0 0.00 0.00 0.00 79 981.7
20260905221544 23 41 9.7 0.0 0.00 0.00 0.00 79 981.8
20260905220044 22 43 6.4 0.0 0.00 0.00 0.00 79 981.8
20260905214548 22 45 6.4 0.0 0.00 0.00 0.00 82 981.8
20260905213049 22 45 8.0 0.0 0.00 0.00 0.00 77 982.0
20260905211544 23 55 12.9 0.0 0.00 0.00 0.00 77 982.0
20260905210050 23 56 12.9 0.0 0.00 0.00 0.00 77 982.0
20260905204548 23 54 11.3 0.0 0.00 0.00 0.00 82 980.8
20260905203048 23 51 12.9 0.0 0.00 0.00 0.00 80 981.3
20260905201547 23 46 14.5 0.0 0.00 0.00 0.00 80 981.3
20260905200055 22 46 14.5 0.0 0.00 0.00 0.00 80 981.3
20260905194548 23 52 14.5 0.0 0.00 0.00 0.00 80 981.6
20260905193048 23 51 16.1 0.0 0.00 0.00 0.00 80 981.6
20260905191544 24 58 11.3 0.0 0.00 0.00 0.00 80 981.7
20260905190057 23 58 11.3 0.0 0.00 0.00 0.00 80 981.7
20260905184548 23 54 11.3 0.0 0.00 0.00 0.00 82 982.4
20260905183048 24 51 9.7 0.0 0.00 0.00 0.00 80 982.3
20260905181547 24 71 6.4 0.0 0.00 0.00 0.00 80 982.3
20260905180050 23 77 9.7 0.0 0.00 0.00 0.00 80 982.3
20260905174548 23 64 9.7 0.0 0.00 0.00 0.00 80 982.5
20260905173049 23 60 11.3 0.0 0.00 0.00 0.00 81 981.8
20260905171548 23 54 8.0 0.0 0.00 0.00 0.00 81 981.9
20260905170058 23 58 8.0 0.0 0.00 0.00 0.00 81 981.9
20260905164548 23 52 8.0 0.0 0.00 0.00 0.00 83 982.3
20260905163048 23 66 6.4 0.0 0.00 0.00 0.00 84 981.2
20260905161545 23 67 8.0 0.0 0.00 0.00 0.00 84 981.2
20260905160043 22 75 8.0 0.0 0.00 0.00 0.00 84 981.2
20260905154544 22 63 8.0 0.0 0.00 0.00 0.00 88 982.2
20260905153048 22 64 9.7 0.0 0.00 0.00 0.00 88 981.2
20260905151544 22 52 11.3 0.0 0.00 0.00 0.00 88 981.2
20260905150044 21 52 9.7 0.0 0.00 0.00 0.00 88 981.2
20260905144557 21 49 9.7 0.0 0.00 0.00 0.00 93 981.5
20260905143041 21 51 9.7 0.0 0.00 0.00 0.00 93 981.1
20260905141548 21 58 9.7 0.0 0.00 0.00 0.00 93 981.1
20260905140048 21 68 9.7 0.0 0.00 0.00 0.00 93 981.1
20260905134548 21 64 8.0 0.0 0.00 0.00 0.00 97 980.6
20260905133048 21 67 9.7 0.0 0.00 0.00 0.00 97 980.6
20260905131544 21 69 9.7 0.0 0.00 0.00 0.00 97 980.6
20260905130050 20 66 9.7 0.0 0.00 0.00 0.00 97 980.6
20260905124548 20 55 11.3 0.0 0.00 0.00 0.00 96 979.9